Temperature
3 2 1 1 0 -0 -0 -1 -1 -1 -1 -1 -2 -2 -2 -2 -2 -2 -2 -2 -2 -2 -2 -2 -1 -0 0 1 1 2 3 4 5 6 8 9 10 10 10 10 11 11 11
3 2 1 -0 -1 -2 -2 -2 -2 -2 -3 -3 -3 -4 -4 -4 -4 -3 -3 -3 -3 -3 -3 -3 -3 -2 -2 -1 -0 0 1 2 3 4 6 8 10 10 10 10 10 11 11
2 1 0 -1 -2 -3 -3 -3 -3 -4 -4 -4 -4 -4 -4 -5 -5 -5 -4 -3 -4 -4 -4 -4 -4 -4 -3 -3 -2 -1 -0 0 1 2 4 6 9 10 11 10 10 10 11
2 0 -1 -2 -3 -4 -4 -4 -4 -5 -5 -5 -6 -6 -6 -6 -6 -6 -6 -5 -5 -5 -5 -5 -5 -5 -4 -4 -3 -2 -1 -0 0 1 2 4 5 7 9 10 10 10 10
1 -0 -1 -3 -4 -4 -5 -5 -5 -6 -6 -6 -7 -7 -7 -7 -7 -7 -7 -6 -6 -6 -6 -6 -6 -5 -5 -4 -4 -3 -2 -1 -0 1 1 2 4 5 6 8 9 10 9
1 -0 -2 -3 -4 -5 -6 -6 -6 -7 -7 -7 -7 -8 -8 -8 -8 -8 -8 -7 -7 -7 -7 -6 -6 -6 -6 -5 -4 -4 -3 -2 -1 -0 1 1 2 4 5 6 8 9 9
0 -1 -2 -4 -5 -6 -7 -7 -7 -7 -8 -8 -8 -8 -8 -9 -9 -9 -8 -8 -8 -8 -7 -7 -7 -7 -6 -6 -5 -4 -3 -3 -2 -1 -0 1 1 2 3 4 6 7 8
-0 -2 -3 -4 -5 -6 -7 -8 -8 -8 -8 -9 -9 -9 -9 -9 -9 -9 -9 -9 -9 -9 -8 -8 -8 -7 -7 -6 -5 -5 -4 -3 -2 -2 -1 0 1 1 2 3 4 5 7
-1 -2 -4 -5 -6 -7 -8 -8 -9 -9 -9 -9 -9 -9 -10 -10 -10 -10 -10 -10 -9 -9 -9 -9 -8 -8 -7 -7 -6 -5 -5 -4 -3 -2 -1 -1 0 1 1 2 3 4 5
-2 -3 -4 -5 -7 -7 -8 -8 -9 -9 -10 -10 -10 -10 -10 -10 -10 -10 -10 -10 -10 -10 -9 -9 -9 -8 -8 -7 -7 -6 -5 -5 -4 -3 -2 -1 -1 -0 1 1 2 3 3
-2 -3 -4 -6 -7 -8 -8 -9 -9 -10 -10 -10 -10 -11 -11 -11 -11 -11 -11 -11 -11 -10 -10 -10 -9 -9 -8 -8 -7 -7 -6 -6 -5 -4 -3 -2 -2 -1 -0 1 1 2 2
-3 -4 -5 -6 -7 -8 -9 -9 -10 -10 -10 -11 -11 -11 -11 -11 -11 -11 -12 -12 -11 -11 -11 -11 -10 -10 -9 -8 -8 -7 -6 -6 -6 -5 -4 -3 -2 -2 -1 -0 0 1 2
-3 -5 -6 -7 -8 -9 -9 -10 -10 -10 -11 -11 -11 -11 -12 -12 -12 -12 -12 -12 -12 -12 -12 -11 -11 -10 -9 -9 -8 -7 -7 -6 -6 -6 -5 -4 -3 -3 -2 -1 -0 0 1
-4 -5 -6 -7 -8 -9 -10 -10 -10 -11 -11 -11 -11 -12 -12 -12 -13 -13 -13 -13 -12 -12 -12 -12 -11 -11 -10 -9 -8 -7 -7 -7 -7 -6 -6 -5 -4 -4 -3 -2 -1 -0 0
-5 -6 -7 -8 -9 -9 -10 -10 -10 -11 -11 -11 -11 -12 -12 -12 -13 -13 -13 -13 -13 -13 -13 -12 -12 -11 -11 -10 -9 -8 -7 -7 -7 -7 -6 -6 -5 -5 -4 -3 -2 -1 -0
-6 -7 -8 -9 -9 -10 -10 -10 -10 -10 -11 -11 -11 -12 -12 -12 -13 -13 -13 -13 -13 -13 -13 -13 -12 -12 -11 -10 -9 -8 -8 -8 -8 -7 -7 -7 -6 -6 -4 -4 -3 -2 -1
-7 -8 -9 -9 -10 -10 -10 -10 -10 -10 -10 -11 -11 -12 -12 -13 -13 -13 -13 -13 -14 -14 -13 -13 -13 -12 -12 -11 -10 -9 -8 -8 -8 -8 -8 -7 -7 -6 -6 -5 -4 -3 -2
-8 -9 -9 -9 -10 -10 -10 -9 -10 -10 -10 -11 -11 -12 -13 -13 -13 -14 -14 -14 -14 -14 -14 -13 -13 -13 -12 -11 -10 -9 -9 -8 -8 -8 -8 -8 -7 -7 -7 -6 -5 -5 -4
-9 -9 -9 -9 -9 -9 -9 -9 -10 -10 -10 -11 -12 -12 -13 -13 -14 -14 -14 -14 -14 -14 -14 -13 -13 -13 -12 -12 -11 -10 -9 -9 -9 -9 -8 -8 -8 -8 -7 -7 -6 -6 -6
-8 -8 -8 -9 -9 -9 -9 -9 -10 -10 -11 -11 -12 -12 -13 -14 -14 -14 -14 -14 -14 -14 -14 -14 -13 -13 -13 -12 -11 -10 -10 -9 -9 -9 -9 -8 -8 -8 -8 -8 -8 -7 -7
-7 -8 -8 -8 -9 -9 -9 -9 -10 -11 -11 -11 -12 -12 -13 -14 -14 -14 -14 -14 -14 -14 -14 -14 -13 -13 -13 -12 -12 -11 -10 -10 -10 -9 -9 -9 -8 -8 -8 -9 -9 -9 -8
-7 -7 -8 -8 -9 -9 -9 -10 -10 -10 -11 -11 -12 -13 -13 -14 -14 -14 -14 -14 -14 -14 -14 -14 -13 -13 -13 -13 -12 -11 -11 -11 -10 -10 -9 -9 -9 -9 -9 -9 -10 -9 -9
-7 -8 -8 -8 -8 -9 -9 -10 -10 -10 -11 -11 -12 -13 -14 -14 -14 -14 -14 -14 -14 -14 -14 -13 -13 -13 -13 -13 -12 -12 -12 -11 -11 -11 -10 -10 -10 -10 -10 -10 -10 -10 -10
-7 -8 -8 -8 -8 -9 -9 -10 -10 -10 -11 -12 -13 -13 -14 -14 -14 -14 -14 -14 -14 -14 -14 -13 -13 -13 -13 -13 -12 -12 -12 -12 -12 -11 -11 -11 -11 -11 -11 -11 -11 -11 -11
-7 -8 -8 -8 -8 -9 -9 -9 -10 -10 -11 -12 -13 -13 -14 -14 -14 -14 -14 -14 -14 -14 -14 -14 -14 -14 -13 -13 -13 -13 -13 -13 -12 -12 -12 -12 -12 -12 -12 -12 -12 -12 -12
-7 -7 -8 -8 -8 -9 -9 -9 -10 -10 -11 -12 -13 -13 -14 -14 -14 -14 -14 -15 -15 -14 -14 -14 -14 -14 -14 -13 -13 -14 -14 -13 -13 -13 -13 -13 -13 -13 -13 -13 -13 -13 -13
Wind_Speed
13 13 15 17 18 20 21 21 20 20 18 15 15 15 15 14 14 16 19 20 21 21 18 15 16 15 13 14 15 14 14 12 11 12 13 14 16 17 15 14 14 14 14
14 15 16 17 18 19 20 20 19 19 17 15 14 13 14 13 14 17 19 20 21 20 17 16 14 14 14 15 15 14 11 11 10 9 10 10 13 14 15 14 14 15 13
14 14 15 16 17 18 18 17 19 18 18 19 15 13 12 12 12 14 14 19 21 20 18 18 16 15 13 13 15 14 14 12 12 10 7 8 9 10 11 14 14 14 13
14 13 14 16 17 17 17 17 18 17 18 18 16 17 14 14 16 14 14 19 20 19 19 19 18 16 13 14 14 14 13 13 11 11 9 11 12 10 10 9 11 13 13
14 13 14 15 15 16 16 16 17 17 17 18 17 16 15 14 14 15 17 17 18 19 19 19 18 16 13 15 16 15 14 12 11 10 10 11 11 14 13 14 12 10 11
14 13 13 14 14 15 15 16 17 16 17 17 17 17 17 18 18 18 17 16 14 15 19 21 19 17 14 15 16 15 16 13 13 12 10 10 9 9 10 12 14 13 12
14 13 14 15 15 16 16 16 17 16 17 18 17 17 17 18 18 18 17 17 15 15 18 20 18 17 17 17 15 15 15 15 14 13 11 10 10 10 10 11 12 14 13
13 13 13 14 15 16 16 16 16 17 17 17 17 17 17 14 14 17 16 16 15 15 19 21 20 19 19 17 15 14 15 14 14 14 14 11 10 9 9 10 10 12 13
13 12 13 14 15 15 16 16 16 17 17 18 18 17 17 16 17 17 16 15 15 17 21 21 19 19 19 17 17 13 15 14 14 13 14 12 10 9 9 9 9 10 12
12 12 13 14 14 15 15 15 16 16 17 17 16 15 17 16 17 16 17 18 18 20 20 19 19 18 18 17 16 15 14 15 14 12 13 13 10 9 9 8 8 9 11
12 13 13 14 14 15 15 15 16 17 17 17 17 17 16 16 17 16 17 17 18 19 19 19 19 19 18 18 16 16 16 16 15 14 13 13 13 10 9 8 8 8 9
12 13 14 14 15 15 15 15 16 16 17 17 17 17 16 16 17 17 17 18 18 19 19 18 19 19 18 18 17 17 17 15 14 14 14 13 12 13 10 8 9 8 9
13 14 14 14 15 15 15 15 16 16 17 17 17 17 16 17 17 17 17 18 18 18 18 18 18 18 19 18 18 18 16 13 12 12 12 12 12 12 11 10 8 7 8
14 15 15 14 15 15 15 15 16 16 16 16 17 16 17 17 17 17 17 17 17 18 18 18 17 18 18 17 18 18 13 11 11 10 11 11 11 12 13 10 9 7 7
15 15 15 15 15 15 15 16 16 16 16 16 16 16 17 17 17 17 17 17 17 18 17 17 17 17 16 16 21 17 13 11 10 10 10 10 12 15 13 11 9 7 5
15 15 15 15 15 16 16 16 16 17 16 16 16 16 17 17 17 17 17 17 17 17 17 17 17 17 15 23 27 20 12 10 10 10 10 10 11 13 16 17 17 14 8
14 14 14 14 15 15 15 16 16 16 16 16 16 16 17 17 17 18 17 17 17 17 17 17 17 17 18 25 27 24 13 10 9 9 10 9 10 11 10 12 16 17 19
12 13 13 13 14 14 14 15 15 15 15 16 16 17 17 18 18 18 18 17 16 16 15 16 17 17 18 24 26 26 13 8 8 9 10 10 10 10 10 9 10 12 15
11 11 12 13 14 14 14 15 15 15 15 16 17 18 18 18 18 18 18 17 16 16 15 15 16 16 18 22 26 24 10 7 8 8 10 11 9 11 11 9 10 11 12
10 11 12 13 13 13 14 14 15 16 16 18 18 19 18 18 18 18 18 16 16 15 15 15 15 16 16 20 24 23 9 8 8 8 9 11 10 11 12 10 10 11 11
10 11 12 12 12 13 13 14 15 16 18 18 18 18 18 18 17 17 16 16 15 15 14 14 14 14 15 18 21 22 11 10 8 8 8 8 11 14 15 14 12 12 10
11 12 12 13 12 12 13 15 16 17 18 18 18 18 18 16 15 17 16 15 15 14 14 13 13 12 12 14 18 21 17 14 9 9 7 7 13 17 18 14 15 15 12
10 11 12 13 13 13 13 15 17 17 18 18 18 18 18 16 16 16 16 15 13 12 12 12 11 11 11 12 17 16 17 16 10 9 12 13 16 16 14 18 18 14 10
10 10 12 13 13 14 14 14 16 17 18 18 18 17 17 16 16 14 13 13 13 13 12 11 10 10 10 10 10 9 10 12 9 8 11 15 17 15 14 14 12 11 11
9 10 10 12 14 15 15 15 16 17 18 18 17 16 15 16 15 14 13 14 13 14 13 11 10 9 9 11 15 12 10 10 9 8 7 8 9 9 9 9 10 9 9
9 10 11 12 14 14 15 15 16 17 17 16 16 14 14 14 13 13 13 16 16 19 18 17 14 10 12 14 15 15 15 15 13 9 8 9 9 9 9 8 9 9 9
Wind_Direction
13 11 8 7 4 1 359 356 354 353 353 350 345 342 339 339 339 340 339 339 339 339 338 337 335 333 329 325 322 325 321 317 310 293 279 265 256 252 251 250 250 246 244
3 4 3 3 1 358 356 352 352 350 351 347 340 337 333 333 335 335 334 337 337 337 336 337 334 332 328 324 324 324 319 316 317 304 293 272 260 245 242 244 244 246 245
357 356 357 358 358 357 355 350 349 347 348 346 341 339 337 336 339 338 335 334 334 334 334 334 333 330 329 322 322 319 316 314 311 300 286 278 267 273 244 238 240 241 242
354 353 353 355 356 355 352 349 347 346 348 347 347 344 342 340 337 336 331 331 332 332 334 333 331 329 326 322 320 318 312 309 306 305 288 282 284 279 271 251 240 239 240
351 349 352 352 352 353 351 348 346 347 349 348 348 345 342 338 334 335 333 334 332 332 333 333 330 327 325 323 320 316 311 307 301 300 298 292 283 267 263 264 259 246 240
348 346 348 350 350 351 351 348 346 347 348 348 347 345 343 340 337 338 336 335 332 331 332 332 329 326 325 323 320 316 312 307 301 297 293 291 285 280 270 262 260 260 255
344 344 346 348 349 350 350 347 347 346 348 347 347 343 342 339 337 337 334 334 331 332 331 330 327 326 325 323 322 318 314 310 306 300 294 290 284 284 282 275 269 266 264
345 344 346 347 347 347 348 347 346 345 346 346 344 341 342 338 335 334 332 330 329 328 328 328 326 325 325 324 323 319 316 315 312 304 299 291 286 281 276 272 272 268 263
345 344 344 347 347 347 347 346 344 344 345 344 342 340 340 338 335 332 331 331 329 328 329 328 327 325 324 324 324 318 318 319 317 313 308 300 289 283 278 272 263 261 261
346 345 346 348 347 346 345 345 344 343 342 342 341 337 337 336 334 331 332 331 330 329 328 328 328 326 324 324 323 319 318 321 320 317 315 314 304 292 282 275 269 259 258
347 346 347 348 346 346 346 344 343 342 341 341 339 337 336 335 334 334 333 331 330 330 329 328 327 327 326 326 322 321 318 320 321 322 322 320 317 307 293 281 271 265 258
347 345 345 346 346 346 344 342 341 341 340 338 336 335 335 335 335 335 334 332 331 330 329 328 327 327 327 326 323 320 317 315 319 325 326 327 330 324 314 299 282 271 260
347 346 346 346 345 343 341 339 339 339 337 336 335 334 335 335 335 334 333 333 332 330 330 329 327 327 327 325 324 321 314 313 320 326 327 329 334 333 328 317 300 288 272
348 346 345 344 343 340 338 337 336 336 335 334 333 334 334 333 332 332 333 333 332 331 331 329 328 328 326 325 327 324 322 323 328 331 331 332 338 338 334 328 316 300 286
346 345 344 342 340 339 337 335 333 333 332 331 331 331 330 330 329 330 332 333 333 332 330 329 330 330 329 330 329 327 330 333 335 336 335 335 343 347 346 347 344 329 304
344 343 342 340 338 336 334 331 330 329 328 326 325 326 327 328 328 328 329 331 332 332 331 331 331 332 332 331 333 340 337 338 340 340 339 340 347 352 353 360 10 15 5
342 341 339 336 333 332 329 327 324 323 322 321 321 322 324 325 326 326 327 329 330 330 330 330 331 331 330 334 335 341 340 341 345 345 344 347 350 357 357 6 17 21 26
339 336 334 330 328 326 324 320 318 318 319 319 320 323 324 323 323 324 325 326 327 327 327 327 329 329 331 334 335 338 335 341 350 349 345 346 349 8 10 14 26 28 27
336 333 329 326 324 325 324 319 318 320 321 323 324 324 324 322 323 323 323 324 325 324 325 325 327 329 330 334 336 340 333 345 352 349 347 348 353 22 23 25 33 35 28
340 334 328 326 326 327 325 321 322 325 327 327 324 323 324 324 323 321 322 323 322 321 324 323 325 327 330 334 337 344 345 350 353 351 347 353 12 38 41 37 39 39 32
340 334 329 328 329 328 324 322 325 329 328 325 324 325 326 326 322 322 323 322 322 322 322 323 326 329 333 337 340 350 360 356 353 350 347 360 32 54 55 52 49 46 39
339 336 330 327 328 327 326 326 330 330 327 326 327 328 329 328 325 326 326 326 325 324 324 324 327 332 336 339 342 351 1 3 356 348 348 20 52 61 58 54 48 45 42
335 333 328 324 328 332 334 331 331 330 329 329 331 331 331 331 331 331 331 331 330 327 324 324 328 332 335 339 344 353 1 5 7 9 31 55 59 60 56 50 47 42 40
332 329 327 327 329 334 337 335 332 332 331 332 334 335 335 336 338 339 339 338 336 333 332 336 338 337 337 343 352 1 4 7 15 27 39 51 58 57 52 48 45 42 42
327 326 325 323 329 334 336 338 337 336 335 335 338 338 339 341 344 345 345 344 343 343 348 349 346 346 344 355 14 22 19 19 29 36 48 49 49 50 49 47 45 42 40
322 322 324 329 332 334 336 339 341 340 338 339 341 341 344 347 347 344 343 347 349 351 356 357 359 357 2 15 28 30 30 31 38 47 50 50 49 47 44 43 42 40 38
Height
1613 1609 1604 1599 1593 1587 1581 1575 1569 1562 1556 1550 1544 1538 1533 1529 1525 1520 1516 1511 1506 1501 1497 1493 1488 1485 1481 1478 1475 1471 1469 1467 1466 1465 1463 1462 1463 1462 1463 1464 1465 1466 1467
1611 1608 1603 1598 1593 1587 1581 1574 1568 1562 1555 1549 1544 1538 1533 1527 1522 1517 1513 1508 1503 1498 1494 1490 1486 1482 1478 1474 1471 1468 1465 1463 1462 1461 1459 1457 1456 1455 1455 1456 1458 1459 1461
1611 1607 1602 1598 1592 1586 1579 1573 1567 1560 1554 1548 1542 1536 1530 1525 1520 1514 1509 1505 1500 1495 1491 1487 1483 1479 1475 1471 1468 1465 1463 1460 1458 1458 1458 1455 1450 1450 1449 1449 1450 1452 1454
1610 1606 1601 1596 1590 1584 1577 1571 1565 1559 1552 1546 1539 1534 1528 1523 1518 1512 1507 1502 1497 1493 1489 1484 1480 1476 1472 1468 1464 1462 1460 1457 1454 1453 1452 1451 1449 1448 1444 1444 1444 1445 1447
1609 1605 1600 1595 1589 1583 1576 1569 1563 1557 1551 1544 1538 1533 1528 1522 1516 1511 1505 1499 1494 1490 1486 1481 1477 1472 1468 1464 1461 1458 1455 1453 1451 1449 1447 1445 1443 1443 1442 1440 1440 1440 1441
1607 1603 1599 1594 1588 1581 1575 1568 1561 1555 1549 1543 1537 1532 1526 1520 1514 1508 1502 1496 1491 1487 1483 1478 1473 1469 1465 1460 1456 1453 1451 1449 1446 1444 1442 1440 1439 1438 1437 1435 1435 1435 1436
1606 1601 1597 1592 1586 1580 1573 1567 1560 1554 1548 1542 1536 1531 1525 1519 1513 1507 1501 1495 1489 1484 1479 1474 1470 1466 1461 1457 1452 1449 1446 1444 1441 1439 1437 1435 1433 1432 1431 1431 1429 1429 1430
1604 1600 1596 1590 1584 1578 1571 1565 1559 1553 1547 1540 1535 1529 1524 1518 1512 1506 1500 1494 1488 1482 1476 1471 1467 1462 1458 1453 1449 1445 1442 1439 1436 1434 1432 1429 1428 1427 1426 1425 1425 1424 1424
1603 1599 1594 1589 1583 1576 1570 1563 1557 1551 1545 1539 1533 1527 1521 1515 1509 1504 1498 1492 1486 1480 1474 1469 1464 1459 1455 1450 1446 1442 1438 1435 1431 1429 1426 1424 1422 1421 1420 1419 1420 1420 1418
1601 1597 1593 1587 1581 1575 1568 1562 1556 1550 1543 1537 1531 1525 1519 1513 1507 1501 1495 1489 1483 1477 1471 1466 1461 1456 1451 1447 1443 1439 1435 1431 1428 1424 1421 1419 1417 1415 1414 1413 1413 1413 1413
1599 1596 1591 1585 1580 1573 1567 1560 1554 1548 1541 1535 1528 1522 1516 1510 1504 1499 1493 1486 1480 1474 1469 1463 1458 1453 1448 1444 1440 1436 1432 1428 1424 1420 1417 1414 1411 1410 1408 1407 1406 1406 1407
1598 1594 1589 1584 1578 1571 1565 1559 1552 1546 1539 1533 1526 1520 1514 1508 1502 1496 1490 1484 1478 1472 1466 1461 1455 1450 1446 1441 1437 1433 1429 1425 1421 1417 1413 1410 1407 1404 1402 1401 1400 1400 1400
1597 1593 1588 1582 1576 1570 1563 1557 1551 1544 1538 1531 1524 1518 1512 1506 1499 1493 1487 1481 1475 1469 1464 1458 1453 1447 1443 1438 1434 1430 1425 1422 1418 1414 1410 1407 1404 1401 1398 1396 1395 1394 1393
1596 1591 1586 1580 1574 1568 1562 1555 1549 1542 1535 1529 1522 1516 1510 1503 1497 1491 1485 1479 1473 1467 1461 1455 1450 1445 1440 1436 1432 1427 1422 1419 1415 1411 1408 1404 1401 1398 1395 1392 1390 1389 1388
1594 1589 1584 1578 1572 1566 1560 1553 1547 1540 1533 1527 1520 1514 1508 1501 1495 1489 1483 1477 1470 1464 1459 1453 1448 1443 1438 1434 1429 1425 1420 1416 1412 1409 1405 1402 1399 1396 1393 1390 1387 1385 1383
1592 1587 1582 1576 1570 1564 1558 1551 1544 1538 1531 1524 1518 1512 1505 1499 1492 1486 1480 1474 1468 1462 1457 1451 1446 1441 1436 1432 1427 1423 1419 1415 1411 1407 1404 1401 1397 1394 1391 1388 1385 1383 1380
1591 1586 1580 1575 1568 1562 1556 1549 1542 1536 1529 1522 1516 1509 1503 1496 1490 1484 1478 1472 1466 1460 1454 1449 1444 1439 1434 1430 1425 1421 1417 1414 1410 1407 1404 1401 1397 1394 1390 1387 1384 1382 1379
1588 1583 1578 1572 1567 1560 1554 1548 1541 1534 1527 1520 1513 1507 1500 1494 1487 1481 1475 1470 1464 1458 1453 1448 1443 1438 1433 1428 1424 1420 1416 1413 1410 1407 1404 1401 1398 1395 1391 1388 1385 1382 1380
1586 1581 1576 1570 1565 1558 1552 1545 1539 1532 1525 1518 1512 1505 1498 1491 1484 1478 1473 1467 1461 1456 1451 1446 1441 1436 1431 1427 1422 1418 1415 1412 1410 1407 1404 1401 1399 1396 1392 1390 1387 1385 1382
1584 1580 1574 1569 1563 1557 1550 1544 1537 1530 1524 1517 1509 1502 1495 1489 1482 1476 1470 1464 1459 1454 1449 1444 1440 1435 1431 1426 1422 1418 1414 1412 1410 1407 1404 1402 1400 1397 1394 1392 1390 1388 1386
1583 1578 1573 1567 1561 1555 1549 1542 1536 1529 1522 1515 1507 1500 1493 1486 1480 1474 1468 1462 1457 1452 1448 1443 1439 1434 1430 1426 1422 1418 1415 1412 1410 1408 1405 1403 1400 1399 1397 1395 1393 1392 1390
1581 1577 1572 1566 1560 1554 1547 1541 1535 1528 1520 1513 1505 1498 1491 1485 1478 1472 1466 1461 1456 1451 1446 1442 1438 1434 1430 1426 1422 1418 1416 1413 1411 1409 1406 1404 1402 1400 1399 1398 1397 1395 1394
1580 1575 1571 1565 1559 1553 1546 1540 1533 1526 1518 1511 1503 1496 1490 1484 1477 1471 1465 1459 1455 1450 1445 1441 1437 1433 1430 1426 1423 1420 1417 1414 1412 1410 1407 1405 1403 1402 1402 1401 1400 1399 1398
1579 1574 1569 1564 1558 1552 1546 1540 1532 1525 1517 1509 1502 1495 1489 1483 1477 1471 1465 1459 1454 1449 1445 1440 1437 1434 1430 1427 1424 1421 1418 1416 1413 1411 1409 1407 1406 1405 1405 1405 1404 1403 1402
1578 1573 1568 1562 1557 1551 1545 1539 1532 1524 1516 1509 1501 1495 1489 1483 1476 1471 1465 1460 1455 1451 1446 1441 1438 1435 1432 1429 1426 1423 1420 1418 1416 1414 1412 1411 1411 1410 1409 1409 1408 1407 1407
1577 1572 1567 1562 1557 1551 1545 1538 1531 1524 1516 1508 1501 1495 1489 1482 1476 1471 1465 1461 1456 1451 1446 1442 1439 1436 1434 1430 1428 1425 1423 1420 1418 1417 1416 1415 1415 1414 1414 1413 1412 1411 1410